Weather History for KCID - February, 2013

Change the Weather History Date:

Tuesday, February 26, 2013

  Actual Average Record
Temperature  
Mean Temperature 33 °F 29 °F  
Max Temperature 35 °F 38 °F 68 °F (1896)
Min Temperature 30 °F 20 °F -11 °F (2015)
Degree Days  
Heating Degree Days 32 36  
Month to date heating degree days 1049 1063  
Since 1 July heating degree days 5044 5211  
Cooling Degree Days 0 0  
Month to date cooling degree days 0 0  
Year to date cooling degree days 0 0  
Moisture  
Dew Point 28 °F    
Average Humidity 88    
Maximum Humidity 100    
Minimum Humidity 75    
Precipitation  
Precipitation 0.00 in 0.05 in 0.67 in (1998)
Month to date precipitation 0.93 1.11  
Year to date precipitation 1.87 2.03  
Sea Level Pressure  
Sea Level Pressure 29.70 in    
Wind  
Wind Speed 19 mph (NNE)    
Max Wind Speed 30 mph    
Max Gust Speed 39 mph    
Visibility 4 miles    
Events Fog , Snow    
T = Trace of Precipitation, MM = Missing Value Source: NWS Daily Summary

Daily Weather History Graph

Daily Weather History Graph

Search for Another Location

Airport or City:

Trip Planner

Search our weather history database for the weather conditions in past years. The results will help you decide how hot, cold, wet, or windy it might be!

Date:

Astronomy

Feb. 26, 2013 Rise Set
Actual Time 6:46 AM CST 5:53 PM CST
Civil Twilight 6:18 AM CST 6:21 PM CST
Nautical Twilight 5:45 AM CST 6:54 PM CST
Astronomical Twilight 5:13 AM CST 7:26 PM CST
Moon 7:13 PM CST (2/26) 6:47 AM CST (2/26)
Length of Visible Light 12h 03m
Length of Day
11h 07m
Full, 99% of the Moon is Illuminated
Feb 26
Full
Mar 4
Last Quarter
Mar 11
New
Mar 19
First Quarter
Mar 27
Full

Hourly Weather History & Observations

Time (CST) Temp. Windchill Dew Point Humidity Pressure Visibility Wind Dir Wind Speed Gust Speed Precip Events Conditions
12:52 AM 34.0 °F 24.6 °F 27.0 °F 75% 29.89 in 6.0 mi ENE 13.8 mph - N/A   Haze
1:52 AM 33.1 °F 23.0 °F 26.1 °F 75% 29.86 in 7.0 mi ENE 15.0 mph - N/A   Clear
2:52 AM 33.1 °F 22.6 °F 26.1 °F 75% 29.81 in 7.0 mi NE 16.1 mph - N/A   Overcast
3:52 AM 32.0 °F 21.2 °F 26.1 °F 79% 29.79 in 6.0 mi NE 16.1 mph - N/A   Haze
4:52 AM 32.0 °F 21.2 °F 26.1 °F 79% 29.77 in 7.0 mi NE 16.1 mph 25.3 mph N/A   Overcast
5:52 AM 32.0 °F 20.8 °F 26.1 °F 79% 29.73 in 8.0 mi NE 17.3 mph - N/A   Overcast
6:52 AM 33.1 °F 22.2 °F 26.1 °F 75% 29.73 in 9.0 mi NE 17.3 mph 26.5 mph N/A   Overcast
7:52 AM 33.1 °F 21.2 °F 26.1 °F 75% 29.75 in 8.0 mi NE 20.7 mph 25.3 mph N/A   Overcast
8:52 AM 33.1 °F 19.8 °F 26.1 °F 75% 29.72 in 6.0 mi NNE 26.5 mph 34.5 mph N/A   Haze
9:52 AM 34.0 °F 21.5 °F 26.1 °F 73% 29.70 in 7.0 mi NNE 24.2 mph 29.9 mph N/A   Overcast
10:52 AM 34.0 °F 21.0 °F 26.1 °F 73% 29.68 in 8.0 mi NNE 26.5 mph 32.2 mph N/A   Overcast
11:52 AM 34.0 °F 20.5 °F 26.1 °F 73% 29.67 in 7.0 mi NNE 28.8 mph 38.0 mph N/A   Overcast
12:52 PM 34.0 °F 21.3 °F 26.1 °F 73% 29.64 in 8.0 mi NNE 25.3 mph 35.7 mph N/A   Overcast
1:15 PM 33.8 °F 21.0 °F 26.6 °F 75% 29.61 in 2.5 mi NNE 25.3 mph 35.7 mph 0.00 in Snow Light Snow
1:27 PM 33.8 °F 20.8 °F 26.6 °F 75% 29.61 in 5.0 mi NNE 26.5 mph 34.5 mph 0.00 in Snow Light Snow
1:52 PM 33.1 °F 20.9 °F 28.0 °F 82% 29.64 in 7.0 mi NNE 21.9 mph 32.2 mph 0.00 in   Overcast
2:52 PM 32.0 °F 18.6 °F 28.0 °F 85% 29.63 in 0.8 mi NNE 25.3 mph 34.5 mph 0.00 in Snow Light Snow
3:08 PM 30.2 °F 17.4 °F 28.4 °F 93% 29.61 in 0.2 mi NNE 20.7 mph 31.1 mph 0.00 in Fog , Snow Snow
3:11 PM 30.2 °F 17.4 °F 30.2 °F 100% 29.61 in 0.8 mi North 20.7 mph 27.6 mph 0.00 in Snow Light Snow
3:52 PM 30.9 °F 18.1 °F 30.0 °F 96% 29.65 in 1.5 mi NNE 21.9 mph 29.9 mph 0.00 in Snow Light Snow
4:17 PM 30.2 °F 18.5 °F 30.2 °F 100% 29.64 in 0.8 mi North 17.3 mph 26.5 mph 0.00 in Snow Light Snow
4:33 PM 30.2 °F 18.5 °F 30.2 °F 100% 29.65 in 1.0 mi NNE 17.3 mph 26.5 mph 0.00 in Snow Light Snow
4:52 PM 30.9 °F 19.4 °F 30.0 °F 96% 29.68 in 1.0 mi NNE 17.3 mph - 0.00 in Snow Light Snow
5:37 PM 32.0 °F 20.5 °F 30.2 °F 93% 29.66 in 5.0 mi NNE 18.4 mph - 0.00 in Snow Light Snow
5:52 PM 32.0 °F 20.5 °F 30.0 °F 92% 29.69 in 3.0 mi North 18.4 mph - 0.00 in Snow Light Snow
6:20 PM 32.0 °F 21.2 °F 30.2 °F 93% 29.67 in 1.8 mi North 16.1 mph - 0.00 in Snow Light Snow
6:52 PM 30.9 °F 21.7 °F 30.0 °F 96% 29.70 in 1.5 mi North 11.5 mph - 0.00 in Snow Light Snow
6:58 PM 30.2 °F 19.8 °F 30.2 °F 100% 29.68 in 1.2 mi North 13.8 mph - 0.00 in Snow Light Snow
7:01 PM 30.2 °F 20.2 °F 30.2 °F 100% 29.68 in 1.2 mi North 12.7 mph - 0.00 in Snow Light Snow
7:08 PM 30.2 °F 18.9 °F 30.2 °F 100% 29.68 in 1.2 mi North 16.1 mph - 0.00 in Snow Light Snow
7:52 PM 30.9 °F 19.8 °F 30.0 °F 96% 29.71 in 1.5 mi North 16.1 mph 20.7 mph 0.00 in Snow Light Snow
8:30 PM 30.2 °F 20.2 °F 30.2 °F 100% 29.68 in 2.0 mi North 12.7 mph - 0.00 in Snow Light Snow
8:52 PM 30.9 °F 18.4 °F 30.0 °F 96% 29.72 in 2.0 mi NNE 20.7 mph 26.5 mph 0.00 in Snow Light Snow
9:14 PM 30.2 °F 20.2 °F 30.2 °F 100% 29.69 in 1.5 mi North 12.7 mph - 0.00 in Snow Light Snow
9:15 PM 30.2 °F 20.8 °F 30.2 °F 100% 29.69 in 1.5 mi North 11.5 mph - 0.00 in Snow Light Snow
9:52 PM 30.9 °F 20.2 °F 30.0 °F 96% 29.72 in 1.2 mi North 15.0 mph 25.3 mph 0.00 in Snow Light Snow
10:21 PM 30.2 °F 18.1 °F 30.2 °F 100% 29.69 in 1.2 mi North 18.4 mph - 0.00 in Snow Light Snow
10:38 PM 30.2 °F 18.9 °F 30.2 °F 100% 29.69 in 1.2 mi North 16.1 mph - 0.00 in Snow Light Snow
10:52 PM 30.2 °F 18.9 °F 30.2 °F 100% 29.69 in 1.5 mi North 16.1 mph - N/A Snow Light Snow
11:25 PM 30.2 °F 18.9 °F 28.4 °F 93% 29.69 in 1.8 mi North 16.1 mph 25.3 mph 0.00 in Snow Light Snow
11:45 PM 30.2 °F 19.8 °F 28.4 °F 93% 29.69 in 1.5 mi North 13.8 mph - 0.00 in Snow Light Snow
11:52 PM 30.0 °F 19.5 °F 28.9 °F 96% 29.72 in 1.5 mi North 13.8 mph - 0.00 in Snow Light Snow